RH
41 46 47 48 51 60 68 71 73 77 79 83 86 82 74 72 71 68 63 50 44 42 36 31 32 33 35 39 37 37 38 34 50 46 52 34 45 42 43 57 67 55 47
39 45 46 46 47 53 60 72 77 85 84 75 74 70 69 65 52 44 45 42 32 31 33 36 37 36 33 32 28 27 26 34 28 46 43 43 42 39 31 29 40 41 51
37 42 45 48 50 46 35 32 35 39 45 49 48 48 46 53 51 43 33 32 34 37 38 34 30 28 25 23 15 18 18 36 37 42 45 42 42 51 48 44 45 48 42
36 41 45 52 51 34 33 32 33 34 39 50 52 56 50 40 33 32 36 39 40 36 33 32 30 26 19 13 8 12 13 30 44 37 39 42 47 54 51 39 40 39 36
39 44 51 58 50 39 37 37 36 37 39 38 37 34 32 31 34 39 42 38 37 36 35 31 27 19 12 7 7 8 9 13 38 40 39 44 47 50 42 42 37 36 33
42 49 58 61 47 43 42 40 38 37 35 34 32 31 32 36 41 41 40 41 38 36 34 28 19 11 7 7 7 8 9 13 35 32 38 45 46 48 44 39 40 44 48
46 53 58 62 60 51 44 42 39 37 35 33 32 34 38 42 42 45 46 42 39 36 34 26 14 8 7 7 8 8 11 22 32 31 43 35 38 49 44 42 47 53 60
46 52 55 61 68 60 52 45 41 38 36 35 36 39 44 46 48 50 47 42 38 35 29 19 11 7 7 8 10 14 27 32 30 32 37 36 44 42 46 49 56 64 63
46 50 57 63 67 64 59 49 43 40 38 38 41 46 49 52 51 48 45 42 37 32 23 12 7 7 8 12 18 22 26 30 29 33 35 40 44 45 49 52 62 58 56
47 51 57 61 62 63 56 51 46 42 40 42 48 52 54 52 50 48 44 40 31 22 10 7 7 8 12 19 23 24 26 31 33 36 39 43 46 47 51 53 56 56 57
47 52 56 61 63 62 54 52 49 44 43 48 55 56 55 54 50 46 39 30 17 10 7 8 8 13 20 23 27 28 32 33 36 40 44 46 49 51 52 57 59 60 62
47 51 56 63 64 63 58 55 52 47 47 55 58 58 57 52 48 40 30 18 9 8 8 9 17 21 25 28 32 35 34 36 42 46 49 52 55 58 63 64 64 66 68
48 51 58 63 62 62 59 57 54 49 53 60 61 60 55 51 44 34 20 10 8 8 11 20 24 27 30 35 37 36 38 45 52 55 58 60 63 65 65 67 72 73 78
50 51 59 61 59 59 58 54 53 52 59 63 63 58 55 48 36 23 12 9 9 13 22 26 29 33 38 40 40 37 44 59 66 68 67 67 64 64 68 72 80 88 89
50 52 59 60 59 59 56 52 53 56 64 65 62 59 51 40 24 12 9 10 14 23 28 33 39 41 41 39 41 51 68 76 79 75 69 64 63 68 72 73 91 94 96
48 52 60 61 61 59 56 54 56 62 67 66 63 55 45 27 12 10 10 15 22 29 37 41 42 41 40 43 56 72 84 87 83 76 69 65 64 64 70 79 82 90 85
44 54 60 64 64 60 58 58 58 66 68 66 58 47 34 17 11 11 15 22 30 38 41 42 41 41 42 49 61 77 92 90 79 72 67 67 68 74 72 82 86 87 90
48 54 62 69 67 62 61 56 59 69 69 62 49 38 22 12 12 16 22 28 36 40 41 40 40 43 45 51 65 84 90 84 77 71 71 73 78 77 84 96 90 97 91
56 64 69 73 68 65 62 62 68 71 66 51 39 26 14 12 15 19 23 34 40 40 38 38 43 44 45 55 70 88 88 84 80 79 82 87 94 84 92 96 95 90 86
62 68 73 70 70 66 65 67 69 69 56 44 33 19 13 15 18 21 34 39 39 36 40 43 43 44 49 60 77 83 87 88 88 90 90 84 84 90 98 93 91 95 89
52 60 68 72 65 67 67 67 72 62 47 39 28 14 15 18 20 34 38 34 32 38 44 43 44 48 58 66 73 82 87 94 96 93 93 92 86 95 88 79 88 90 93
59 68 69 66 66 68 71 74 69 50 47 41 17 16 17 20 33 38 35 31 43 47 43 45 48 57 63 68 76 82 86 87 97 96 96 93 99 85 77 82 81 85 90
63 68 67 67 69 73 77 75 63 55 51 18 17 18 18 32 39 38 36 44 48 47 49 53 60 70 77 80 82 85 87 88 94 93 92 96 84 78 81 83 85 87 87
66 70 71 72 76 79 80 66 63 60 19 18 18 20 31 38 40 44 49 48 49 56 62 71 85 91 90 90 87 90 96 95 92 96 97 82 79 81 85 88 88 92 95
69 74 76 71 77 82 74 62 59 21 18 19 19 29 40 42 44 49 47 50 56 67 82 90 94 96 96 91 90 91 93 95 96 95 92 85 86 90 94 91 93 95 100
73 79 80 81 82 75 65 54 21 19 18 19 29 41 43 48 51 49 47 53 62 69 74 82 88 90 90 91 92 91 94 96 90 94 91 90 96 97 96 97 96 100 100
Wind_Speed
7 7 9 10 11 13 14 14 14 14 13 13 13 11 10 8 7 7 7 6 7 8 9 11 12 14 15 16 18 19 21 22 19 24 25 28 13 16 22 16 21 28 31
12 11 12 13 13 15 16 17 16 15 14 13 15 13 12 12 10 9 8 8 9 10 12 13 15 17 19 19 20 20 22 20 20 20 26 16 24 13 26 32 27 26 24
16 15 15 14 15 17 18 18 18 17 16 15 15 14 13 12 9 8 7 8 9 11 14 16 18 19 19 19 19 19 19 20 19 16 14 16 14 34 27 28 18 20 29
17 17 17 15 16 19 19 18 17 16 15 14 14 12 10 9 8 7 7 9 11 15 18 20 20 19 18 18 18 17 18 18 17 19 16 19 23 29 32 15 32 25 27
20 19 17 17 18 19 18 17 16 15 14 13 12 10 10 9 7 6 8 11 15 18 21 22 21 20 19 18 19 20 21 20 19 18 20 20 22 25 31 39 30 32 30
21 18 16 17 18 18 17 16 15 15 13 11 11 10 9 7 6 7 10 13 15 18 22 22 20 19 19 20 21 21 22 21 20 23 22 21 24 27 28 35 38 37 35
22 20 18 16 16 16 16 14 13 13 12 10 9 7 6 5 6 9 12 15 17 20 22 22 20 19 20 21 22 23 23 22 22 25 23 26 26 26 29 32 39 39 39
21 20 18 17 15 14 13 13 12 11 10 8 7 5 4 4 7 11 14 16 18 19 21 20 19 20 21 21 22 23 20 20 24 24 25 29 25 27 28 31 33 42 41
22 21 19 16 15 14 13 12 11 10 8 6 4 3 3 6 10 13 15 17 18 19 19 19 19 20 21 22 22 24 25 24 25 26 27 26 29 29 30 32 30 31 39
22 21 19 17 15 14 14 12 10 9 7 5 3 2 5 8 11 14 16 18 18 18 18 18 19 21 23 24 25 27 26 25 24 27 28 29 30 31 32 32 31 31 34
24 22 19 17 15 15 14 12 11 9 7 4 1 3 6 9 12 15 16 17 17 17 17 19 22 23 25 25 26 25 24 23 27 28 29 31 31 32 32 32 33 34 33
23 22 20 18 16 15 14 12 11 9 7 4 2 4 8 11 13 15 16 16 15 17 19 21 23 25 25 25 25 24 23 27 28 29 30 31 31 32 31 32 33 33 35
23 21 20 18 16 15 13 12 11 10 8 5 4 6 9 12 15 16 16 15 16 19 21 23 24 25 26 26 25 23 26 28 28 30 30 32 31 32 32 32 34 36 36
23 22 20 18 16 15 14 12 12 11 9 6 5 8 11 14 16 15 15 16 19 21 23 24 25 26 24 25 24 25 31 30 29 30 30 30 30 31 32 36 35 33 38
23 21 20 18 17 15 14 13 12 11 9 6 7 10 13 15 14 14 16 18 21 23 24 26 25 24 26 23 27 31 31 30 31 30 29 29 30 31 30 31 34 38 40
21 20 18 18 17 16 15 14 13 12 8 6 8 11 14 14 14 15 18 21 23 24 25 25 25 27 26 25 27 27 30 30 29 31 32 30 30 30 31 33 35 35 40
18 18 18 17 16 16 15 14 12 11 7 6 9 12 14 14 15 18 20 21 23 24 25 25 26 27 28 27 27 27 29 29 29 31 31 33 32 32 38 37 37 37 41
12 14 15 15 16 15 14 14 13 9 7 7 10 12 14 15 17 19 20 22 24 25 26 27 28 29 29 27 27 27 28 29 29 30 31 33 35 38 35 39 43 43 44
10 11 13 15 15 16 16 13 10 7 6 8 10 13 15 17 18 20 23 25 26 28 29 29 30 29 29 26 25 26 29 31 31 31 32 34 36 36 36 39 46 46 45
10 11 13 14 14 14 13 11 8 6 7 9 12 14 16 18 20 22 25 26 27 29 29 29 29 27 28 24 24 26 30 32 34 35 38 35 35 36 37 42 45 43 43
9 9 10 12 13 12 11 9 7 7 8 10 14 16 17 19 21 25 26 28 29 29 28 29 28 25 23 25 26 26 29 32 36 41 40 38 38 38 41 42 39 37 40
10 10 11 12 11 10 9 7 6 7 10 13 14 16 18 20 23 27 30 30 28 26 27 27 27 25 23 25 27 28 29 32 37 40 39 41 39 41 41 35 34 36 35
8 9 9 10 9 8 6 5 8 9 12 13 14 17 19 21 24 28 28 28 24 25 26 26 27 27 27 30 27 29 32 35 37 38 39 38 40 37 34 35 33 32 35
7 8 8 8 8 7 6 7 9 11 11 13 15 18 21 25 26 24 23 24 25 25 26 28 29 30 32 30 33 37 40 39 41 40 39 39 33 33 34 34 35 34 34
6 7 8 8 7 7 7 9 9 9 11 14 17 20 23 25 25 23 24 25 24 23 27 30 31 33 33 34 34 36 40 40 39 39 36 32 34 36 35 36 35 36 36
7 8 9 9 9 7 8 8 8 10 13 17 20 21 23 23 22 25 29 24 22 23 24 25 26 29 29 32 34 36 37 36 35 33 31 34 33 34 36 37 39 39 39
Wind_Direction
164 132 116 110 107 102 100 99 103 106 114 121 127 126 123 116 104 91 79 63 51 33 19 9 355 348 342 334 331 330 326 328 323 322 318 318 333 303 304 283 289 290 296
160 139 126 117 109 104 105 104 107 110 115 125 131 127 118 106 98 90 75 51 31 17 4 354 345 339 336 332 333 333 331 330 331 330 326 325 314 303 298 305 306 306 305
164 148 135 125 116 112 115 114 113 112 110 110 110 107 102 95 87 74 50 32 11 358 350 347 344 340 341 336 337 337 338 331 335 330 329 331 314 317 316 310 315 291 294
164 152 142 131 128 123 120 115 113 112 114 118 118 119 114 102 86 61 34 4 354 350 348 345 342 341 343 340 342 337 340 337 331 331 324 312 307 311 313 305 303 306 297
164 157 147 137 133 130 126 123 121 120 120 118 116 115 107 94 78 47 16 1 351 345 342 343 342 341 341 339 341 340 339 336 326 322 316 312 310 309 309 308 307 303 301
164 159 149 142 140 138 133 131 131 124 120 117 112 105 100 89 55 25 8 0 349 344 338 341 339 337 336 337 336 333 330 327 321 317 320 312 312 309 308 304 304 303 304
166 163 155 148 146 145 140 136 135 130 128 126 119 110 92 61 30 13 358 350 343 337 333 334 334 334 332 330 329 327 326 323 317 319 308 309 308 302 302 302 302 303 304
172 169 162 156 152 149 146 144 143 139 137 133 128 112 77 34 7 353 346 342 337 331 327 326 326 326 326 325 324 324 320 316 310 315 301 307 302 300 298 300 302 304 302
176 172 166 162 158 154 151 157 156 155 153 149 135 96 33 5 354 347 342 339 333 326 324 324 325 325 324 323 322 321 319 312 314 305 308 306 300 303 297 299 294 296 301
175 173 170 166 161 159 164 166 169 172 172 163 138 37 2 354 349 343 339 335 329 322 321 323 324 324 323 322 320 319 315 312 307 308 304 303 302 301 300 298 295 294 294
176 175 173 170 167 171 174 178 182 185 182 177 191 345 346 344 343 339 337 331 326 325 325 324 324 323 322 318 316 314 314 307 307 306 304 302 301 301 300 299 299 297 296
178 177 176 174 174 176 180 183 189 191 194 202 260 321 332 336 336 336 333 330 327 325 323 322 321 321 317 314 314 312 310 308 308 306 303 302 302 301 301 302 301 300 301
178 178 179 181 180 179 183 190 189 198 206 222 273 315 326 333 334 331 329 327 325 323 322 320 319 317 315 314 313 311 307 309 305 303 303 302 303 303 304 303 304 301 298
182 182 183 186 185 184 184 186 193 205 216 237 283 315 326 329 330 330 329 327 325 323 322 319 318 317 312 310 314 303 310 310 307 304 304 304 303 303 304 303 302 303 303
186 187 187 188 189 188 187 185 198 209 222 250 297 320 326 330 329 329 328 325 324 323 322 319 316 310 310 315 301 309 311 311 310 309 308 305 304 303 303 305 306 306 306
190 192 191 191 192 191 189 193 203 213 230 271 308 324 329 330 329 328 326 324 325 325 320 315 309 309 311 308 309 308 312 311 312 311 309 308 308 309 306 305 305 304 307
195 194 195 194 193 191 188 195 202 217 241 284 316 326 328 328 327 326 325 327 324 319 314 311 310 310 309 310 310 311 311 316 313 311 311 311 310 309 309 310 307 307 305
182 185 186 184 183 182 181 185 205 221 254 298 317 325 327 326 324 326 327 323 319 315 314 313 312 310 310 310 311 313 316 314 313 312 312 311 309 311 313 312 313 314 314
144 157 167 173 174 181 188 198 207 234 274 303 318 326 323 323 325 327 323 322 318 318 318 316 312 311 309 310 312 315 315 316 314 314 312 312 313 314 314 315 317 316 312
143 153 164 172 176 178 189 197 218 252 289 307 324 321 320 323 324 324 322 320 319 319 316 312 310 309 309 311 314 315 316 315 315 315 317 318 315 315 318 318 317 315 314
144 154 158 158 171 181 187 203 239 275 299 322 321 317 320 322 323 321 322 322 320 317 312 310 312 311 311 313 313 316 315 315 315 318 319 318 318 317 318 316 317 313 315
141 146 152 165 177 185 202 228 258 291 315 316 312 317 323 323 322 323 324 321 319 314 313 313 312 312 312 311 314 315 316 317 317 318 318 316 317 318 318 317 317 316 315
153 158 168 176 187 199 220 255 288 307 310 310 318 321 322 323 322 320 320 318 314 312 310 312 312 313 314 316 318 318 321 320 319 318 317 316 320 319 318 320 319 319 322
171 177 182 187 205 220 245 271 292 297 305 315 319 322 323 322 322 318 313 309 308 308 308 309 313 315 318 321 324 325 323 323 321 322 322 321 320 319 322 324 324 323 321
200 199 193 196 220 240 260 271 285 302 314 318 323 322 320 319 318 314 311 306 305 302 305 310 311 315 318 321 321 320 321 322 322 321 323 324 324 326 325 325 324 323 324
219 207 208 215 228 247 265 276 296 311 316 318 320 320 318 317 313 310 313 313 308 309 307 306 309 312 313 317 319 319 321 322 323 325 326 323 325 325 325 324 324 326 328